Theta_e
278 277 278 277 277 278 277 277 277 277 276 276 276 276 275 275 275 274 274 274 274 274 273 273 273 273 272 272 272 272 271 271 272 272 272 272 273 273 273 272 272 272 272 272 272 272 272 272 272 273 273 273 272 273 275 278 280 280 280 282 284 285
277 277 277 276 276 276 276 276 276 276 275 275 275 275 274 274 274 273 273 273 273 273 272 272 272 272 272 271 271 271 271 271 271 271 272 272 273 272 272 272 272 272 272 272 272 272 272 272 272 272 272 273 273 274 274 275 278 279 280 282 283 284
276 276 275 275 275 276 277 276 275 275 275 274 274 274 274 273 273 273 272 272 272 272 271 271 271 270 271 270 270 270 270 271 272 271 272 272 271 272 271 271 272 272 272 271 272 271 271 271 272 272 272 272 272 272 273 273 274 276 278 280 281 283
276 275 275 275 275 275 275 275 275 274 274 274 273 273 273 272 272 272 272 271 271 270 270 270 270 270 270 269 269 269 270 270 271 271 271 271 271 272 271 271 272 272 272 271 271 271 271 271 271 271 271 271 271 271 272 272 273 274 277 279 279 281
276 276 275 275 275 275 274 274 274 274 273 273 273 272 272 272 271 271 271 270 270 270 269 269 269 269 269 269 269 269 270 270 270 271 271 271 271 271 272 272 271 271 271 271 271 271 271 271 271 271 271 271 271 270 271 272 274 275 277 278 279 280
275 275 275 275 275 274 275 274 274 274 273 272 272 271 271 271 271 270 270 269 269 269 268 268 268 268 268 268 269 269 269 270 270 271 270 271 271 271 271 271 271 270 270 269 269 270 270 270 271 271 272 271 271 271 272 273 274 275 277 278 278 279
274 275 275 275 275 274 274 274 273 273 272 272 271 271 271 270 270 269 269 268 268 268 267 267 268 268 268 268 268 268 269 270 270 270 270 270 270 270 269 269 269 268 268 268 268 269 269 269 269 270 270 271 272 272 272 272 272 272 273 275 278 279
275 274 274 274 274 273 273 272 272 271 271 271 270 270 269 269 269 268 268 267 267 266 266 267 267 267 267 267 268 268 269 269 269 269 269 269 268 267 267 267 267 267 266 267 267 267 268 268 269 269 269 270 270 270 270 270 270 271 272 273 276 278
274 274 273 273 273 272 272 271 270 270 270 269 269 269 268 268 268 267 266 266 266 266 266 266 266 267 267 267 268 268 268 268 268 268 267 267 266 266 265 265 265 266 266 266 266 266 267 267 268 268 269 269 269 269 269 270 270 271 272 273 275 277
274 273 273 272 273 272 271 271 269 268 267 267 268 268 267 267 266 265 265 265 265 265 266 266 266 267 267 267 268 267 267 267 266 266 266 265 264 264 264 264 264 265 265 265 266 266 267 267 267 268 268 269 269 269 269 269 270 270 271 273 274 276
273 273 272 272 271 271 269 268 267 267 267 267 266 266 265 265 265 264 264 264 264 265 266 266 266 267 267 266 266 265 265 265 265 265 264 264 264 264 264 264 264 264 264 265 266 266 267 267 268 268 269 269 269 269 269 270 270 270 270 271 273 275
273 273 272 270 269 268 267 267 267 266 266 266 265 265 265 264 264 264 264 264 264 265 265 265 265 266 265 265 264 264 264 263 263 263 263 263 263 263 263 263 264 264 264 265 265 266 267 267 268 270 273 274 271 271 271 272 272 272 273 273 274 275
273 271 270 269 268 267 267 266 266 265 265 265 264 264 264 264 263 263 263 263 264 264 264 264 264 264 263 263 263 262 262 262 262 262 262 262 262 262 263 263 264 264 264 265 265 265 266 267 268 272 274 275 276 274 272 272 273 274 274 274 275 275
272 271 270 268 267 266 266 265 265 265 264 264 263 263 263 263 263 263 263 263 263 264 264 263 263 262 262 262 261 261 261 261 261 261 261 261 261 262 263 263 263 264 265 265 266 266 266 267 271 273 274 275 276 276 273 273 273 273 273 273 274 276
272 271 269 267 266 266 265 265 264 264 263 263 263 263 262 262 262 262 262 263 263 263 263 262 261 261 260 260 260 260 260 260 260 260 261 261 262 263 263 263 264 264 265 265 265 266 266 267 271 273 275 275 276 277 276 273 273 273 273 273 274 275
271 269 268 267 266 266 265 265 263 263 263 263 262 262 262 262 261 261 261 262 262 262 261 261 260 259 259 260 260 260 260 260 260 261 262 263 263 263 263 263 263 264 265 265 266 266 267 267 271 274 275 275 276 277 276 273 273 273 273 273 274 275
270 267 266 266 265 265 264 263 263 262 262 262 261 261 261 261 261 260 261 261 261 260 260 260 259 259 259 259 259 259 259 260 261 262 263 263 263 263 263 263 263 264 265 266 266 267 267 268 273 275 276 276 277 278 277 274 274 274 274 274 275 276
268 267 266 266 264 264 263 262 262 261 260 261 260 260 260 260 259 260 260 259 259 259 259 259 258 258 258 259 259 259 260 261 262 262 263 263 263 264 264 265 265 265 265 266 267 267 267 268 274 275 276 277 277 278 275 274 274 273 273 274 275 277
267 266 265 264 263 262 261 261 260 260 259 259 259 259 259 259 259 259 259 258 258 258 258 258 258 257 258 258 259 259 260 261 262 262 263 263 263 263 263 263 264 265 266 266 267 267 268 268 272 275 276 277 277 277 274 274 273 273 273 273 275 276
266 265 263 263 262 261 261 260 259 259 258 258 258 258 258 258 258 258 258 257 258 258 258 258 257 257 257 258 258 260 261 262 262 262 263 262 262 262 262 263 263 265 266 266 267 268 268 269 272 276 277 278 278 277 274 274 273 273 273 273 275 276
264 263 263 262 260 260 260 259 258 258 257 257 257 257 257 257 257 257 257 257 257 257 257 257 257 257 257 258 259 260 261 261 261 262 262 262 262 262 262 263 263 264 265 267 267 270 270 270 273 276 277 278 279 277 275 274 273 273 273 273 274 276
263 262 261 260 260 259 259 258 258 256 257 256 256 256 256 256 256 257 257 257 257 257 257 257 257 257 258 259 259 260 261 261 261 261 261 261 261 261 262 263 263 264 265 267 268 269 271 271 272 275 278 279 279 280 277 275 274 272 272 273 274 276
262 261 260 260 259 258 258 257 256 256 256 256 256 256 256 256 257 256 256 256 256 256 256 257 257 257 258 259 260 260 260 261 261 261 260 260 261 261 262 262 264 264 265 267 269 269 270 272 272 273 277 278 279 280 280 277 275 274 274 273 274 275
260 260 259 259 259 258 258 256 256 256 255 255 255 255 256 256 256 255 255 255 255 255 255 256 257 258 259 259 260 259 259 260 260 260 260 260 260 261 261 263 263 264 265 267 269 269 270 272 273 271 274 277 278 280 281 279 277 277 275 274 274 275
259 259 258 258 258 258 258 255 255 255 255 254 255 256 256 255 255 254 254 254 254 254 255 256 257 258 259 259 259 259 258 259 259 259 260 260 261 261 261 262 263 263 265 267 267 269 270 270 270 273 273 276 278 279 280 281 281 281 278 276 275 276
259 258 258 258 257 257 257 255 254 254 253 254 255 256 255 254 254 253 252 253 253 254 255 256 257 258 258 258 258 258 258 258 258 259 260 261 261 261 261 262 263 264 265 265 267 268 268 269 269 272 274 274 277 278 279 280 281 283 280 279 278 278
257 257 257 257 256 257 255 255 253 253 253 255 255 254 254 253 252 251 251 252 253 254 255 256 257 257 257 258 258 257 257 257 258 258 260 261 261 261 261 262 263 264 264 265 266 267 267 268 269 269 272 274 276 277 278 279 280 281 283 281 280 280
256 255 256 256 256 256 255 254 254 251 253 254 254 254 253 251 250 250 251 252 252 253 255 256 257 257 257 257 258 257 257 257 258 258 259 260 261 261 261 262 264 264 264 265 266 266 266 267 268 269 270 272 274 275 277 278 279 280 281 283 283 283
255 255 255 255 256 255 255 253 254 254 254 253 254 253 251 249 249 250 251 251 252 254 255 255 256 257 257 257 257 257 257 257 258 258 259 260 261 261 262 264 263 263 264 265 265 265 265 266 267 268 269 271 272 273 274 275 276 279 281 282 283 284
256 255 254 255 255 255 254 253 253 252 252 252 252 250 248 248 250 250 250 251 253 254 255 255 257 256 255 256 256 256 256 257 258 259 259 260 261 262 263 264 264 263 264 265 265 264 265 265 266 268 269 271 272 273 274 275 276 277 278 280 283 284
255 255 255 255 255 254 253 252 252 251 252 253 250 249 247 248 250 250 249 252 253 253 256 255 255 255 255 255 256 256 257 256 258 259 261 263 264 265 265 265 265 265 266 266 265 264 264 265 266 268 274 272 275 273 273 274 275 277 278 281 284 285
255 254 254 255 254 253 252 251 252 251 253 251 250 249 247 247 249 248 250 251 252 253 254 254 254 255 255 255 255 255 256 260 264 263 261 262 267 270 271 270 266 267 267 267 267 266 265 265 267 273 275 275 275 276 277 277 279 281 283 283 284 285
254 254 254 254 253 252 251 250 251 250 251 252 251 250 248 247 247 249 250 251 251 254 255 254 254 254 254 255 255 255 255 255 257 262 265 267 267 268 270 270 270 271 272 269 266 268 271 271 272 273 274 274 275 275 276 276 277 278 282 286 284 284
254 254 254 254 252 251 250 250 250 250 249 250 249 249 248 247 247 248 249 251 252 254 254 254 254 254 254 254 255 254 254 254 254 255 261 265 266 267 268 269 269 270 270 272 270 269 266 269 271 272 273 273 273 273 274 274 275 276 277 281 287 285
254 254 254 252 251 250 250 248 248 248 249 249 248 248 246 246 247 247 249 250 253 254 254 254 253 253 253 253 254 254 254 253 253 253 253 257 263 265 266 267 268 269 269 270 271 272 270 270 270 271 272 272 272 272 272 272 273 274 274 273 269 270
254 253 252 251 250 250 248 249 249 248 249 249 248 247 245 245 247 247 249 250 253 253 253 253 253 253 253 253 254 254 253 253 253 253 253 253 254 256 260 264 266 267 268 268 270 271 270 270 270 270 270 270 270 271 270 269 266 271 271 268 263 266
253 252 252 252 251 250 250 247 248 249 248 246 245 244 244 244 248 248 251 254 255 252 252 253 253 253 252 253 253 253 252 252 253 253 253 253 252 253 253 254 256 261 266 264 265 269 269 269 269 269 269 269 269 269 269 266 259 259 260 261 261 263
252 252 252 251 250 250 245 247 249 249 246 245 244 244 244 245 247 249 250 252 253 252 253 252 251 252 252 253 253 253 252 253 253 253 252 253 253 253 253 253 254 256 261 265 265 269 267 267 267 267 267 267 268 267 266 257 257 257 258 259 259 260
Wind_Speed
7 7 7 6 5 4 4 3 2 1 2 3 4 6 4 4 4 4 5 5 6 6 7 8 8 8 9 9 10 10 12 12 13 12 13 14 12 12 12 13 14 13 14 13 12 13 12 11 13 11 13 13 14 14 12 13 11 12 13 11 11 13
7 8 7 5 5 4 3 3 1 2 3 4 4 4 4 4 5 5 6 6 7 8 8 8 7 8 8 10 9 11 11 12 13 13 14 12 11 13 13 15 14 15 15 11 13 15 12 13 11 13 13 12 13 10 11 9 13 15 13 13 11 10
6 5 4 3 2 1 1 1 2 3 3 3 3 6 7 6 6 6 6 7 8 8 10 10 9 10 9 10 9 12 11 12 12 11 14 12 14 11 15 15 14 14 14 14 14 13 14 13 12 12 10 12 12 12 13 15 16 17 14 12 15 13
5 4 2 2 2 1 1 1 1 4 3 3 4 4 4 6 7 6 8 7 8 9 10 10 9 8 9 10 12 11 11 13 11 12 12 15 14 11 14 14 14 14 13 15 18 13 13 12 14 12 12 13 14 15 14 15 16 18 17 14 14 14
6 5 5 5 4 3 2 3 3 2 3 3 3 4 5 5 6 6 7 8 8 10 10 10 10 10 11 11 11 11 12 11 12 12 12 14 12 12 12 17 15 15 19 17 20 18 16 15 15 13 15 14 16 17 16 15 16 16 14 13 14 13
4 3 3 3 3 3 4 3 1 2 2 3 3 4 6 6 6 7 7 8 9 9 11 11 10 11 11 11 10 14 14 12 12 10 13 13 15 16 19 14 19 17 17 21 19 19 17 17 16 16 16 17 17 17 17 16 16 15 15 15 13 12
5 5 4 5 4 3 1 1 1 2 3 3 3 4 4 6 6 7 7 8 10 10 10 12 11 12 12 12 11 13 13 13 13 13 14 17 16 18 16 17 17 17 18 17 18 19 18 17 17 18 18 17 15 16 17 17 15 15 16 16 14 14
6 4 5 4 3 1 0 1 1 2 3 3 3 4 5 6 6 7 8 9 10 11 11 11 11 12 13 14 14 14 14 15 17 15 17 14 19 18 18 17 17 16 19 18 19 19 19 19 18 18 18 17 16 17 18 17 17 17 17 17 17 15
7 7 5 3 2 1 0 1 2 3 3 3 3 4 5 6 7 8 8 8 8 9 10 11 11 12 13 12 13 14 17 17 14 17 17 17 17 18 18 17 18 17 17 19 19 19 19 19 18 18 18 17 18 18 18 18 17 17 16 16 17 15
6 5 4 3 2 1 0 1 2 3 3 4 4 4 5 5 7 7 8 8 9 9 10 10 12 12 12 13 15 16 16 15 17 16 17 16 18 18 18 18 19 19 17 18 18 19 18 18 18 18 18 17 17 17 17 17 18 17 17 16 17 16
6 5 4 3 2 1 2 2 3 2 3 3 4 4 5 5 6 8 8 8 9 10 10 11 11 11 13 15 15 16 16 16 16 17 17 17 17 16 17 18 19 20 20 19 19 19 18 17 17 15 14 15 17 17 17 18 18 17 17 17 17 17
6 5 5 3 2 2 3 3 2 2 3 4 4 4 4 6 7 8 8 8 9 9 10 11 11 13 14 15 16 15 16 15 16 16 16 16 15 16 16 16 16 17 20 20 20 18 16 16 14 18 26 24 17 16 15 15 16 17 16 16 17 16
6 5 4 4 3 3 3 3 2 3 4 4 4 4 5 6 7 7 8 9 9 10 10 11 11 11 13 14 14 13 14 15 13 14 14 15 15 16 15 15 17 20 18 18 18 18 16 15 15 26 26 27 29 21 18 17 17 17 17 16 17 16
7 6 5 4 4 3 3 1 2 3 3 4 4 5 6 6 7 8 8 9 10 10 10 10 11 13 12 12 12 12 14 12 15 14 14 14 15 15 14 16 18 17 17 16 17 17 17 17 22 28 28 28 29 26 19 16 16 16 16 16 18 16
8 7 5 4 4 4 2 1 2 3 4 4 5 5 6 6 7 8 9 9 9 9 10 10 10 12 11 13 12 13 12 12 15 15 16 15 15 14 16 16 14 17 19 17 17 17 18 18 23 26 28 28 28 28 24 17 17 17 17 16 17 17
6 6 6 5 4 3 2 1 1 3 3 3 5 5 6 6 7 7 9 9 9 10 11 11 11 12 12 12 12 13 13 14 14 13 13 14 15 15 15 15 16 16 16 16 16 17 17 18 23 28 28 28 28 28 24 17 17 17 18 18 17 16
8 7 6 5 4 2 2 2 2 3 2 4 5 4 6 6 7 7 8 10 10 11 11 11 12 12 14 13 13 13 14 14 14 17 15 15 16 15 16 16 16 16 15 15 15 16 17 16 26 27 29 28 28 28 24 17 16 16 17 17 17 18
10 9 7 5 4 3 2 2 2 2 3 3 4 4 5 5 5 7 8 9 10 11 11 12 13 14 13 15 15 14 15 15 16 15 15 15 16 15 14 14 14 15 17 16 15 15 16 16 27 27 28 28 28 28 17 14 15 16 17 17 17 17
8 7 6 5 4 4 2 1 1 2 3 3 3 3 4 4 5 7 9 9 11 11 11 11 13 14 15 15 16 17 17 17 17 17 15 17 16 16 17 16 16 16 17 19 17 16 16 16 24 29 28 27 28 22 13 13 13 14 16 16 16 16
7 6 7 6 5 3 1 0 2 3 3 3 4 3 4 4 6 8 8 9 10 11 12 11 12 14 15 15 16 17 16 15 14 15 14 15 17 17 17 17 16 16 16 18 18 16 17 16 21 30 29 27 26 22 14 11 12 14 14 15 16 14
8 8 6 6 5 2 2 1 3 4 3 3 3 3 4 5 7 7 9 9 11 11 11 11 12 12 14 15 15 15 16 16 15 14 14 13 14 15 14 15 16 16 16 16 17 24 22 16 18 28 27 27 25 19 12 9 8 12 14 13 14 14
9 7 6 5 4 3 3 3 3 2 2 2 2 3 4 5 6 8 9 10 10 10 11 10 12 12 13 15 16 14 14 14 14 14 14 14 13 13 14 15 15 18 16 15 15 14 15 16 15 18 28 28 27 25 13 9 8 10 14 14 13 12
7 7 7 5 5 2 3 3 3 3 2 2 3 4 5 6 7 8 8 9 10 10 11 10 10 13 14 12 13 13 13 12 13 15 14 14 13 13 15 17 16 17 17 15 14 15 15 13 15 19 30 28 27 26 21 10 10 11 12 13 12 11
7 7 6 5 4 3 3 3 3 3 2 3 3 4 5 6 7 7 7 9 10 10 11 11 11 11 11 12 12 14 14 12 12 12 13 12 13 16 16 17 16 16 16 13 15 15 14 15 22 18 24 27 28 26 29 13 12 13 11 13 12 11
8 7 7 5 3 4 3 4 4 3 2 2 3 4 5 6 6 7 8 8 9 10 11 11 12 12 11 11 12 13 14 13 13 14 12 12 13 14 16 17 18 16 13 14 14 12 14 16 16 24 21 26 28 28 29 30 19 25 15 13 13 12
8 7 7 5 3 3 4 4 4 3 2 2 4 4 4 5 6 7 7 8 8 10 10 11 11 10 10 12 12 11 12 13 13 13 12 12 12 13 16 15 14 13 15 16 14 14 14 14 15 20 25 24 29 29 29 28 28 20 15 13 12 12
10 8 6 6 4 4 3 3 5 2 2 2 3 4 5 6 7 7 7 8 8 8 9 10 10 10 9 11 11 12 12 13 13 13 12 12 13 13 12 13 12 13 15 15 15 17 16 16 16 15 19 28 28 29 27 27 27 25 19 16 13 13
8 9 8 5 4 3 3 2 3 3 1 2 2 3 4 5 6 6 7 8 7 9 8 9 9 10 10 10 10 11 10 11 12 12 13 12 13 14 11 10 12 14 15 14 15 16 17 17 16 16 17 18 21 22 26 27 25 21 20 17 16 21
9 8 8 6 3 4 2 3 2 2 1 2 3 3 3 4 5 6 6 8 8 7 7 8 8 10 10 9 8 8 11 10 10 11 11 12 12 11 10 13 14 13 15 13 15 17 17 16 15 16 15 11 13 15 16 15 15 19 18 12 10 17
10 9 7 7 5 3 2 2 2 1 1 1 2 3 3 4 4 5 6 8 7 7 7 7 10 10 9 10 11 10 10 11 11 11 12 11 10 9 10 7 11 12 13 12 15 16 16 14 14 13 14 17 16 15 14 12 14 12 11 10 9 10
10 8 8 6 4 4 3 2 1 1 2 2 2 3 3 4 4 5 5 6 6 7 6 7 7 7 8 9 9 9 8 10 11 12 12 12 11 13 15 11 9 9 12 12 14 14 15 15 15 16 26 23 27 21 18 16 13 11 11 13 15 8
10 10 8 6 5 3 3 2 1 1 2 1 2 2 3 4 5 5 5 5 5 6 6 7 7 7 7 8 8 10 11 11 17 14 12 12 21 28 28 25 17 18 15 13 12 14 17 16 18 33 35 32 31 31 29 27 27 29 15 17 19 10
7 8 7 6 4 3 3 2 1 0 1 1 2 2 3 3 3 4 5 5 5 6 6 6 7 8 7 7 8 8 9 12 12 14 20 22 24 25 26 28 30 31 30 22 16 18 30 31 33 34 34 33 32 32 31 29 31 32 26 11 11 8
7 9 8 6 5 4 3 2 0 0 1 1 1 2 2 3 2 4 5 5 5 6 6 5 6 7 8 8 8 8 9 10 12 14 15 20 22 24 25 25 29 31 30 32 29 25 16 27 33 35 34 33 32 32 31 30 30 34 32 24 5 6
7 6 7 6 6 5 3 2 1 0 0 0 1 1 2 3 3 4 4 5 5 5 6 6 6 7 7 8 9 10 9 10 11 14 16 18 20 21 19 22 28 31 32 31 32 37 32 31 32 36 35 34 33 33 32 27 27 34 35 28 17 10
8 8 7 7 6 5 4 3 2 1 1 0 1 1 1 3 4 4 4 4 5 5 5 5 5 6 7 7 7 8 9 9 9 11 12 15 17 20 23 25 28 30 32 31 31 35 34 34 35 35 36 35 33 33 32 25 21 32 33 26 13 12
9 8 7 8 6 5 3 4 2 1 0 0 0 1 1 2 4 3 5 8 6 3 3 4 5 6 6 6 7 8 8 9 9 10 11 12 13 14 14 15 19 23 28 26 23 31 35 33 35 36 34 35 33 34 30 30 22 19 19 18 15 13
9 8 7 6 5 5 4 4 2 1 1 0 0 0 1 2 3 3 3 4 4 3 3 4 4 5 6 6 7 7 7 8 8 9 9 9 10 10 12 13 13 14 18 28 26 32 32 34 34 33 33 32 35 34 32 20 16 14 13 13 13 12
Wind_Direction
191 190 199 208 205 205 203 211 233 265 275 264 252 267 286 305 313 304 298 291 297 299 302 302 303 299 295 294 293 293 292 292 292 287 287 287 286 286 287 287 286 282 282 277 275 275 272 269 270 270 270 269 269 266 265 261 259 266 267 264 261 267
193 192 197 204 205 199 193 200 250 281 269 257 269 292 320 321 309 302 299 299 299 303 304 302 298 296 294 294 295 294 290 289 289 287 287 284 286 284 284 283 281 281 279 274 274 276 272 271 267 266 268 267 268 272 274 276 274 269 265 266 266 272
194 204 199 201 194 176 167 210 242 265 257 278 328 329 322 316 306 307 306 308 306 307 306 305 306 302 298 294 291 290 286 286 286 284 285 286 283 285 285 281 278 279 277 279 275 273 273 272 269 266 265 268 269 267 269 272 272 273 270 267 271 269
192 193 162 149 152 193 214 263 260 255 278 341 333 315 302 303 310 311 310 310 305 304 302 302 302 298 301 299 297 292 291 290 289 289 289 286 284 281 283 281 283 281 281 284 284 277 272 271 271 266 265 266 266 266 266 265 263 261 261 261 265 269
183 181 170 170 179 195 218 239 236 283 344 338 309 302 299 304 303 308 306 303 304 303 303 304 304 306 304 300 297 293 293 293 292 292 289 289 286 285 282 292 290 288 290 289 289 287 285 281 277 274 271 266 266 266 264 262 262 258 259 258 257 261
155 144 157 170 194 198 221 231 339 355 328 307 299 297 304 308 309 308 305 301 301 304 307 308 309 307 305 304 302 300 299 296 294 293 291 292 299 299 298 295 295 294 294 293 291 287 286 285 285 283 277 272 266 265 263 261 262 264 264 261 258 261
164 184 176 179 195 206 207 358 358 321 296 302 296 294 303 307 306 305 302 303 308 312 312 311 312 309 308 305 304 304 302 303 303 304 303 305 303 303 301 298 298 294 294 293 293 290 288 285 283 280 277 275 272 270 271 270 271 271 272 271 267 261
179 166 177 182 185 186 101 350 293 290 283 282 295 301 308 304 301 300 309 314 313 310 307 305 309 310 310 311 309 308 307 308 309 310 309 307 304 305 300 298 297 296 293 292 290 289 286 284 281 276 273 271 271 272 272 270 267 263 260 260 260 255
180 181 176 172 170 174 160 236 279 279 281 290 304 302 301 305 306 312 315 314 310 309 310 312 314 313 310 309 308 310 312 310 310 309 307 307 302 300 299 297 295 292 290 289 288 286 284 281 278 275 272 270 268 266 266 267 265 262 259 256 253 252
172 168 168 167 181 156 200 265 264 267 280 298 299 301 303 304 314 317 320 321 317 316 315 316 315 314 311 311 312 310 310 310 309 308 305 304 302 299 296 296 295 293 289 288 286 284 283 279 276 273 269 266 265 264 264 265 266 263 260 259 257 256
169 165 164 179 157 190 258 263 263 272 297 277 274 289 296 313 319 322 323 323 319 318 317 316 317 314 313 313 312 310 310 309 307 304 303 301 297 295 291 291 291 290 290 288 285 283 280 277 273 271 267 264 261 260 259 262 261 259 258 258 256 254
157 161 169 160 172 222 244 259 263 282 276 273 286 295 311 334 327 326 324 320 318 317 317 315 313 314 314 313 311 310 309 306 304 301 298 295 292 290 289 287 283 286 291 290 289 285 281 276 273 269 270 266 262 260 260 258 259 259 256 256 256 252
156 157 158 175 190 212 236 244 265 270 263 279 295 313 334 335 329 324 321 317 317 318 316 315 313 314 312 311 307 305 304 302 300 297 293 290 290 289 286 284 290 294 290 287 284 283 279 274 270 272 271 270 267 266 266 266 265 264 267 269 264 257
163 164 175 184 193 210 219 248 267 256 270 287 314 336 338 338 329 323 321 319 319 319 317 315 314 313 310 308 303 303 302 298 299 296 295 292 293 292 291 292 289 284 287 286 282 278 277 275 275 275 274 272 269 267 265 263 262 261 262 260 262 262
165 166 169 173 186 194 192 203 253 260 284 308 336 345 343 337 329 324 321 319 318 316 318 317 315 311 307 306 304 303 304 302 299 299 298 295 294 293 294 290 285 292 288 281 279 275 276 275 274 276 274 273 271 269 266 264 262 262 261 259 259 263
147 153 164 170 174 161 136 210 217 272 301 330 350 349 339 329 325 325 320 320 321 324 322 320 316 310 307 307 307 306 305 303 299 296 296 298 298 296 296 295 287 286 288 283 279 276 275 276 273 273 272 272 271 270 268 262 260 259 260 259 257 257
151 147 158 161 158 137 159 228 244 274 332 10 358 349 336 334 327 326 325 326 326 325 324 319 317 313 312 311 310 308 306 303 304 307 308 307 308 305 306 303 299 289 273 268 271 276 273 270 274 277 276 274 273 273 269 262 259 259 259 257 254 253
157 165 162 141 136 145 174 220 281 345 18 4 359 347 338 333 329 326 331 329 326 325 320 320 316 316 315 315 315 313 311 310 310 310 313 313 314 310 305 305 298 293 292 281 276 273 273 272 279 283 283 278 277 276 271 263 259 258 259 259 258 254
138 141 138 140 143 157 196 237 348 29 26 18 5 356 340 339 336 336 332 322 321 319 319 318 317 316 316 315 315 315 316 315 319 320 321 317 317 317 317 314 310 305 302 298 290 278 277 279 284 289 288 283 276 275 265 259 257 257 258 258 257 257
127 134 139 144 138 143 168 200 56 48 39 22 3 357 345 347 339 334 326 317 318 316 318 316 315 313 313 314 314 315 314 315 315 317 319 317 318 317 316 312 307 305 302 299 292 283 278 280 286 292 292 290 282 271 261 250 248 251 259 258 257 255
137 136 135 139 151 149 171 108 75 62 43 22 4 353 349 347 335 331 327 320 316 313 311 311 311 311 310 312 313 315 316 320 319 316 317 315 312 310 311 309 306 303 302 294 282 282 289 283 286 296 296 292 289 280 258 247 230 245 251 256 259 255
129 133 141 155 160 168 139 83 76 73 60 20 355 359 350 340 332 322 320 314 310 309 308 309 309 308 310 312 312 314 317 316 316 319 318 315 313 312 311 308 304 304 305 302 298 299 300 302 300 306 314 314 305 291 270 230 228 235 247 251 256 260
139 147 153 158 165 139 103 82 84 77 53 16 11 5 347 335 327 325 318 316 309 308 307 310 308 310 311 309 311 314 314 317 317 319 319 316 314 312 311 309 309 309 307 300 301 305 306 304 313 316 315 314 313 310 297 241 231 230 238 245 246 249
134 134 141 158 140 109 96 90 90 69 60 18 15 353 336 334 330 323 319 314 309 306 308 308 310 310 312 313 317 319 318 317 316 315 316 312 314 316 313 314 313 314 307 304 310 308 310 317 319 314 312 314 315 316 319 298 231 230 229 240 239 245
149 161 155 132 115 100 90 93 83 74 49 30 6 339 338 336 330 321 315 309 305 309 309 310 313 318 320 320 321 320 319 320 323 321 316 315 318 319 319 318 316 305 305 313 307 316 321 320 319 318 315 315 317 321 320 317 301 237 237 231 237 234
155 149 135 121 107 101 88 96 86 70 50 33 357 342 341 330 327 318 311 308 307 308 310 310 314 317 321 321 322 322 321 324 326 323 322 324 322 325 321 313 304 309 321 314 315 326 328 323 320 316 318 318 319 319 319 316 320 300 231 229 235 238
157 137 122 115 105 108 92 90 95 82 66 5 4 346 342 331 326 320 309 309 308 308 306 309 314 320 323 326 326 329 328 325 330 326 327 329 330 324 309 307 310 323 320 316 324 331 328 327 322 317 318 320 316 315 316 317 315 316 292 242 228 230
130 123 119 116 120 103 104 84 95 98 41 1 2 350 341 323 318 312 309 308 308 306 308 313 317 320 324 327 329 327 324 323 326 327 325 329 330 328 308 299 331 325 321 317 332 333 330 327 325 322 320 314 314 315 315 316 314 303 300 288 242 229
123 124 128 127 125 116 103 101 83 80 45 6 355 351 329 315 304 304 308 313 308 308 312 320 325 326 326 330 334 330 326 328 324 325 327 326 328 318 309 330 333 327 320 322 336 334 329 327 326 322 309 311 318 321 315 315 311 306 303 293 253 233
133 135 136 136 137 129 117 109 97 79 41 16 355 337 327 309 308 310 311 308 307 311 315 324 327 329 327 331 334 337 333 330 327 329 331 324 324 312 319 315 329 326 316 323 338 334 330 326 325 315 324 332 330 323 317 307 303 298 289 289 264 217
137 142 138 137 135 130 123 107 103 74 34 13 345 332 337 317 316 311 305 304 310 314 323 328 326 326 327 325 329 330 330 326 328 328 322 326 323 338 340 331 317 324 333 325 338 331 332 333 330 332 337 333 332 329 324 316 307 284 269 265 267 230
139 144 141 138 135 132 124 117 94 63 36 354 326 330 333 319 319 316 312 310 312 310 326 331 328 327 327 326 327 329 325 330 338 330 329 323 338 345 350 355 349 346 342 338 344 345 342 335 334 336 339 340 339 338 336 335 333 331 296 249 255 239
140 134 137 141 138 131 127 119 105 88 358 339 339 323 312 307 313 311 303 316 316 320 338 327 329 328 325 326 327 330 329 328 331 336 337 338 342 345 347 354 356 352 353 356 350 349 351 344 341 344 345 346 347 347 347 348 353 353 354 275 244 233
153 153 150 146 140 133 128 126 152 158 265 301 311 306 294 296 288 296 301 306 303 319 334 330 329 326 328 330 332 336 336 336 333 330 339 344 343 344 347 352 356 355 353 357 0 359 349 352 349 351 352 353 355 357 355 354 3 10 7 6 281 224
152 140 140 139 140 135 141 152 221 214 236 283 289 292 303 296 287 285 300 300 308 319 332 336 333 332 330 329 336 340 343 342 342 340 334 336 340 346 352 354 357 356 355 355 359 3 359 357 355 356 358 359 359 1 1 359 13 20 18 21 33 18
140 141 142 141 141 143 148 165 213 207 231 267 271 290 258 277 277 278 275 291 303 322 330 334 332 333 329 325 335 338 341 339 340 336 334 336 340 344 348 352 357 355 354 356 357 3 359 0 0 1 2 3 2 4 4 6 18 19 22 30 24 16
140 141 145 143 136 147 158 185 221 220 202 226 260 299 294 284 288 286 295 304 312 319 322 328 334 330 324 329 341 342 340 337 336 337 340 343 342 342 341 337 337 346 351 355 351 3 2 1 3 3 4 6 7 8 4 22 23 9 1 8 11 9
141 142 142 136 141 151 169 207 213 211 196 212 177 252 289 292 293 297 297 300 305 325 331 337 334 329 326 336 336 336 331 331 333 340 339 333 336 334 336 333 337 332 330 348 352 3 3 2 2 4 4 9 15 13 12 23 8 8 359 3 0 358